STARLINK-1283, 45389

Orbit data source: Space-Track

STARLINK-1283, 45389 is a payload satellite owned by SpaceX/Seattle (US) in LEO that was launched on Wed, 18 Mar 2020 UTC via an FALCON 9 launch vehicle from the Air Force Eastern Test Range (AFETR). Payloads include a variety of satellites, spacecraft, and rockets equipped with specific instruments for various scientific and technological missions. These include communications satellites like Starlink; space stations such as the ISS; scientific satellites like the Hubble; Earth observation satellites from companies like Planet Labs, Umbra, and HawkEye 360; GPS; miniature CubeSats for education and research; and military/defense satellites.

Loading next visibility...
STARLINK-1283 details
Identifier
45389, 2020-019AF
Orbit
LEO
Last TLE update1 day ago
Origin
Flag of USSpaceX/Seattle (US)
ManufacturerSpaceX/Seattle
MissionOperational Commercial Communications
Bus & MotorSTARLINK, Unknown motor
Mass260 kg wet, ~248 kg dry
Launch date (UTC)
2020-03-18 (5 years ago)
Launch vehicle
FALCON 9
Launch site
Air Force Eastern Test Range (AFETR)
Object type
Payload
Rocket body
Debris
Shape & HBRBox + 1 Pan, 8.86 m
Radar Cross Section13.562 m², Large (>1 m²)

Expand to show TLE details & history

TLE from 1 day ago
0 STARLINK-1283
1 45389U 20019AF  24360.29676287  .00027733  00000-0  18749-2 0  9996
2 45389  53.0554 319.1310 0001373  93.9328 266.1818 15.06370920263780
Epoch: 2024-12-25T07:07Z
Definitive object data (Epoch: 2024-12-25T07:07:20.311Z)
Latitude-0.00004°
Longitude118.0038°
Altitude548.243 km
Speed7.589 km/s
True Right ascension21h 16m 31s
True Declination0° 00' 00"
Sunlit
Object was in daylight at TLE epoch
Visualization TLE readout
Latitude44.78463°
Longitude-115.08793°
Altitude550.851 km
Speed7.592 km/s
Apparent Right ascension01h 55m 07s
Apparent Declination8° 29' 13"
Sunlit
Object is in full shadow
Visualization observer readout
Local Sidereal Time10:04:08
Azimuth298.379° NW
Elevation-18.066°
Doppler factor1
Orbital elements
Apogee altitude548.522 km
Perigee altitude546.62 km
Semi-major axis6,925.708 km
Eccentricity0.0001373
Inclination53.0554°
RAAN319.131°
Arg. of periapsis93.9328°
True anomaly266.1661°
Mean anomaly266.1818°
Eccentric anomaly266.17395°
Mean motion3.76571 °/min
BSTAR0.0018749
Orbital period95.6 mins
Loading maneuver chart data...
Loading historical data...
Loading historical data...
Loading historical data...
Loading historical data...
Loading historical data...
Loading historical data...
Loading historical data...

STARLINK-1283 Visibility forecast

Observer location: undefined°, undefined

Span
Click to sort rows by Start time (UTC) header in descending order
Start Az.
Max El. time (UTC)
Max El. Az.
Max El.
End time (UTC)
End Az.
6 mins2024-12-26 23:04:54.266Z191.896° SSW2024-12-26 23:07:54.266Z137.041° SSE28.018°2024-12-26 23:10:54.266Z74.217° E
6 mins2024-12-27 00:44:54.266Z267.576° W2024-12-27 00:47:54.266Z342.592° N31.16°2024-12-27 00:50:54.266Z35.366° NE
6 mins2024-12-27 05:46:54.266Z333.135° NNW2024-12-27 05:48:54.266Z15.354° NNE30.339°2024-12-27 05:52:54.266Z98.491° ESE
5 mins2024-12-27 07:26:54.266Z275.938° WNW2024-12-27 07:28:54.266Z225.117° WSW28.973°2024-12-27 07:31:54.266Z167.34° S
|